This is the latest recevied weather packets stored in our database for station/object AJ7DN. If no packets are shown the sender has not sent any weather packets the latest 10 day(s).
| Time | Temp. | Humidity | Pressure | Rain* | Wind** | Luminosity | Snow |
|---|---|---|---|---|---|---|---|
| 1777346468 | 13.33° C | 75% | 1023.7 hPa | 0 mm | - | 0 W/m² | - |
| 1777346165 | 13.33° C | 76% | 1023.5 hPa | 0 mm | - | 0 W/m² | - |
| 1777345862 | 13.33° C | 75% | 1023.8 hPa | 0 mm | - | 0 W/m² | - |
| 1777345560 | 13.33° C | 75% | 1023.8 hPa | 0 mm | - | 0 W/m² | - |
| 1777345257 | 13.33° C | 74% | 1023.3 hPa | 0 mm | - | 1 W/m² | - |
| 1777344953 | 13.33° C | 73% | 1023.4 hPa | 0 mm | - | 0 W/m² | - |
| 1777344649 | 13.89° C | 71% | 1023.2 hPa | 0 mm | - | 3 W/m² | - |
| 1777344346 | 13.89° C | 71% | 1023.3 hPa | 0 mm | - | 5 W/m² | - |
| 1777344043 | 13.89° C | 71% | 1023.2 hPa | 0 mm | - | 7 W/m² | - |
| 1777343741 | 13.89° C | 71% | 1023.3 hPa | 0 mm | - | 10 W/m² | - |
| 1777343438 | 13.89° C | 70% | 1023.1 hPa | 0 mm | - | 13 W/m² | - |
| 1777343136 | 13.89° C | 71% | 1023.3 hPa | 0 mm | - | 18 W/m² | - |
| 1777342833 | 13.89° C | 70% | 1023.1 hPa | 0 mm | - | 23 W/m² | - |
| 1777342530 | 13.89° C | 70% | 1023.1 hPa | 0 mm | - | 25 W/m² | - |
| 1777342227 | 13.89° C | 70% | 1023.3 hPa | 0 mm | - | 24 W/m² | - |
| 1777341923 | 13.89° C | 69% | 1023.3 hPa | 0 mm | - | 25 W/m² | - |
| 1777341620 | 13.89° C | 69% | 1023.1 hPa | 0 mm | - | 26 W/m² | - |
| 1777341315 | 13.89° C | 69% | 1023.2 hPa | 0 mm | - | 29 W/m² | - |
| 1777341012 | 13.89° C | 68% | 1023.4 hPa | 0 mm | - | 31 W/m² | - |
| 1777340710 | 14.44° C | 69% | 1023.3 hPa | 0 mm | - | 32 W/m² | - |
| 1777340408 | 14.44° C | 68% | 1023.4 hPa | 0 mm | - | 32 W/m² | - |
| 1777340105 | 14.44° C | 69% | 1023.2 hPa | 0 mm | - | 38 W/m² | - |
| 1777339802 | 14.44° C | 67% | 1023.3 hPa | 0 mm | - | 39 W/m² | - |
| 1777339500 | 14.44° C | 67% | 1023.3 hPa | 0 mm | - | 40 W/m² | - |
| 1777339197 | 14.44° C | 67% | 1023.1 hPa | 0 mm | - | 49 W/m² | - |
* Rain latest hour (hover to see other rain measurements)
** Current wind speed in m/s (hover to see current wind gust speed)